Back to catalog

TITAN 3C TRANSTAGE DEB

AliveMEO
NORAD 38691·DEBRIS·🇺🇸 United States

Launched Sep 26, 1968 from Cape Canaveral Space Force Station

Loading…

Next Passes (next 24 hours)

TLE

FreshSource: Space-Track

Epoch: Sep 14, 2026, 11:51 UTC

1 38691U 68081R   26257.49409665 -.00000096  00000-0  00000-0 0  9991
2 38691   2.5870  50.0066 0189870 260.9257  97.3320  1.00719781 52265

Track TITAN 3C TRANSTAGE DEB in real time with AllMySat

Download on the App Store